When you browse on this site, cookies collect data to enhance your experience and personalize the content and advertising you see.
Visit our Privacy Policy to learn more. By continuing to use the site, you agree to this use of cookies and data.
  • In United Kingdom
  • List of Countries
  • For 7 days
  • Water Temperature
  • Weather Map
  • Weather Widgets
  • user-avatar
    Login

    Hourly Weather Kembé

    Today, 25 January, Saturday

    Time Temperature Precipitation Wind Pressure Humidity
    00:00 +21°C° 0 mm 1 mps 712 mmHg 23%
    01:00 +20°C° 0 mm 1 mps 712 mmHg 24%
    02:00 +19°C° 0 mm 1 mps 712 mmHg 25%
    03:00 +18°C° 0 mm 1 mps 712 mmHg 26%
    04:00 +16°C° 0 mm 1 mps 712 mmHg 27%
    05:00 +18°C° 0 mm 1 mps 713 mmHg 26%
    06:00 +18°C° 0 mm 2 mps 714 mmHg 25%
    07:00 +20°C° 0 mm 2 mps 714 mmHg 23%
    08:00 +24°C° 0 mm 2 mps 715 mmHg 20%
    09:00 +28°C° 0 mm 2 mps 715 mmHg 16%
    10:00 +33°C° 0 mm 3 mps 716 mmHg 13%
    11:00 +35°C° 0 mm 2 mps 715 mmHg 12%
    12:00 +37°C° 0 mm 2 mps 714 mmHg 11%
    13:00 +40°C° 0 mm 2 mps 713 mmHg 10%
    14:00 +39°C° 0 mm 1 mps 713 mmHg 11%
    15:00 +39°C° 0 mm 1 mps 712 mmHg 11%
    16:00 +39°C° 0 mm 1 mps 711 mmHg 12%
    17:00 +34°C° 0 mm 1 mps 711 mmHg 15%
    18:00 +31°C° 0 mm 1 mps 711 mmHg 19%
    19:00 +27°C° 0 mm 1 mps 711 mmHg 22%
    20:00 +26°C° 0 mm 1 mps 712 mmHg 23%
    21:00 +25°C° 0 mm 1 mps 712 mmHg 24%
    22:00 +24°C° 0 mm 1 mps 712 mmHg 25%
    23:00 +23°C° 0 mm 1 mps 712 mmHg 26%

    Tomorrow, 26 January, Sunday

    Time Temperature Precipitation Wind Pressure Humidity
    00:00 +23°C° 0 mm 2 mps 712 mmHg 26%
    01:00 +21°C° 0 mm 2 mps 712 mmHg 27%
    02:00 +20°C° 0 mm 2 mps 712 mmHg 27%
    03:00 +20°C° 0 mm 1 mps 712 mmHg 28%
    04:00 +20°C° 0 mm 1 mps 712 mmHg 29%
    05:00 +20°C° 0 mm 1 mps 713 mmHg 28%
    06:00 +20°C° 0 mm 2 mps 713 mmHg 27%
    07:00 +21°C° 0 mm 2 mps 714 mmHg 26%
    08:00 +25°C° 0 mm 2 mps 714 mmHg 22%
    09:00 +29°C° 0 mm 2 mps 715 mmHg 19%
    10:00 +34°C° 0 mm 2 mps 715 mmHg 15%
    11:00 +36°C° 0 mm 2 mps 714 mmHg 14%
    12:00 +39°C° 0 mm 2 mps 714 mmHg 13%
    13:00 +41°C° 0 mm 2 mps 713 mmHg 12%
    14:00 +41°C° 0 mm 1 mps 712 mmHg 12%
    15:00 +40°C° 0 mm 1 mps 711 mmHg 12%
    16:00 +40°C° 0 mm 1 mps 711 mmHg 13%
    17:00 +35°C° 0 mm 1 mps 711 mmHg 17%
    18:00 +32°C° 0 mm 1 mps 711 mmHg 21%
    19:00 +28°C° 0 mm 1 mps 711 mmHg 24%
    20:00 +27°C° 0 mm 1 mps 711 mmHg 26%
    21:00 +26°C° 0 mm 1 mps 711 mmHg 27%
    22:00 +25°C° 0 mm 1 mps 711 mmHg 29%
    23:00 +24°C° 0 mm 1 mps 711 mmHg 31%

    Day after tomorrow, 27 January, Monday

    Time Temperature Precipitation Wind Pressure Humidity
    00:00 +24°C° 0 mm 1 mps 712 mmHg 33%
    01:00 +23°C° 0 mm 1 mps 712 mmHg 35%
    02:00 +22°C° 0 mm 1 mps 712 mmHg 36%
    03:00 +21°C° 0 mm 1 mps 712 mmHg 37%
    04:00 +20°C° 0 mm 1 mps 712 mmHg 39%
    05:00 +20°C° 0 mm 1 mps 712 mmHg 36%
    06:00 +21°C° 0 mm 1 mps 713 mmHg 33%
    07:00 +22°C° 0 mm 1 mps 714 mmHg 30%
    08:00 +26°C° 0 mm 2 mps 714 mmHg 24%
    09:00 +30°C° 0 mm 2 mps 714 mmHg 19%
    10:00 +35°C° 0 mm 2 mps 715 mmHg 13%
    11:00 +38°C° 0 mm 2 mps 714 mmHg 13%
    12:00 +40°C° 0 mm 2 mps 713 mmHg 12%
    13:00 +42°C° 0 mm 2 mps 712 mmHg 11%
    14:00 +42°C° 0 mm 1 mps 711 mmHg 12%
    15:00 +41°C° 0 mm 1 mps 711 mmHg 12%
    16:00 +41°C° 0 mm 1 mps 710 mmHg 13%
    17:00 +36°C° 0 mm 1 mps 710 mmHg 17%
    18:00 +32°C° 0 mm 1 mps 710 mmHg 21%
    19:00 +27°C° 0 mm 0 mps 710 mmHg 25%
    20:00 +26°C° 0 mm 0 mps 710 mmHg 26%
    21:00 +25°C° 0 mm 0 mps 710 mmHg 28%
    22:00 +24°C° 0 mm 0 mps 711 mmHg 30%
    23:00 +23°C° 0 mm 0 mps 711 mmHg 32%

    28 January, Tuesday

    Time Temperature Precipitation Wind Pressure Humidity
    00:00 +22°C° 0 mm 0 mps 711 mmHg 34%
    01:00 +20°C° 0 mm 0 mps 711 mmHg 36%
    02:00 +20°C° 0 mm 0 mps 711 mmHg 37%
    03:00 +22°C° 0 mm 1 mps 711 mmHg 38%
    04:00 +21°C° 0 mm 1 mps 711 mmHg 38%
    05:00 +22°C° 0 mm 1 mps 712 mmHg 38%
    06:00 +23°C° 0 mm 1 mps 712 mmHg 37%
    07:00 +23°C° 0 mm 1 mps 713 mmHg 36%
    08:00 +27°C° 0 mm 1 mps 713 mmHg 28%
    09:00 +31°C° 0 mm 2 mps 714 mmHg 21%
    10:00 +36°C° 0 mm 2 mps 714 mmHg 13%
    11:00 +39°C° 0 mm 2 mps 713 mmHg 12%
    12:00 +41°C° 0 mm 1 mps 712 mmHg 11%
    13:00 +44°C° 0 mm 1 mps 712 mmHg 10%
    14:00 +43°C° 0 mm 1 mps 711 mmHg 11%
    15:00 +42°C° 0 mm 1 mps 710 mmHg 11%
    16:00 +41°C° 0 mm 1 mps 709 mmHg 12%
    17:00 +34°C° 0 mm 0 mps 710 mmHg 15%
    18:00 +30°C° 0 mm 0 mps 710 mmHg 19%
    19:00 +26°C° 0 mm 0 mps 710 mmHg 23%
    20:00 +25°C° 0 mm 0 mps 710 mmHg 24%
    21:00 +24°C° 0 mm 0 mps 710 mmHg 26%
    22:00 +23°C° 0 mm 0 mps 711 mmHg 27%
    23:00 +23°C° 0 mm 0 mps 711 mmHg 28%

    29 January, Wednesday

    Time Temperature Precipitation Wind Pressure Humidity
    00:00 +22°C° 0 mm 0 mps 711 mmHg 28%
    01:00 +23°C° 0 mm 1 mps 710 mmHg 29%
    02:00 +23°C° 0 mm 1 mps 711 mmHg 29%
    03:00 +22°C° 0 mm 1 mps 711 mmHg 30%
    04:00 +21°C° 0 mm 1 mps 711 mmHg 30%
    05:00 +22°C° 0 mm 1 mps 712 mmHg 30%
    06:00 +23°C° 0 mm 1 mps 712 mmHg 29%
    07:00 +23°C° 0 mm 1 mps 713 mmHg 29%
    08:00 +27°C° 0 mm 1 mps 713 mmHg 23%
    09:00 +32°C° 0 mm 2 mps 714 mmHg 17%
    10:00 +37°C° 0 mm 2 mps 714 mmHg 10%
    11:00 +39°C° 0 mm 2 mps 713 mmHg 10%
    12:00 +40°C° 0 mm 2 mps 713 mmHg 9%
    13:00 +42°C° 0 mm 2 mps 712 mmHg 8%
    14:00 +42°C° 0 mm 2 mps 711 mmHg 8%
    15:00 +41°C° 0 mm 2 mps 710 mmHg 8%
    16:00 +41°C° 0 mm 1 mps 710 mmHg 9%
    17:00 +36°C° 0 mm 1 mps 710 mmHg 12%
    18:00 +32°C° 0 mm 1 mps 710 mmHg 15%
    19:00 +26°C° 0 mm 0 mps 710 mmHg 18%
    20:00 +25°C° 0 mm 0 mps 710 mmHg 19%
    21:00 +24°C° 0 mm 0 mps 711 mmHg 20%
    22:00 +23°C° 0 mm 0 mps 711 mmHg 21%
    23:00 +25°C° 0 mm 1 mps 711 mmHg 21%

    30 January, Thursday

    Time Temperature Precipitation Wind Pressure Humidity
    00:00 +24°C° 0 mm 1 mps 711 mmHg 22%
    01:00 +23°C° 0 mm 1 mps 711 mmHg 23%
    02:00 +22°C° 0 mm 1 mps 711 mmHg 24%
    03:00 +21°C° 0 mm 1 mps 711 mmHg 25%
    04:00 +20°C° 0 mm 1 mps 711 mmHg 27%
    05:00 +21°C° 0 mm 1 mps 712 mmHg 27%
    06:00 +21°C° 0 mm 1 mps 713 mmHg 27%
    07:00 +22°C° 0 mm 1 mps 713 mmHg 27%
    08:00 +27°C° 0 mm 1 mps 714 mmHg 21%
    09:00 +31°C° 0 mm 2 mps 714 mmHg 16%
    10:00 +37°C° 0 mm 2 mps 714 mmHg 10%
    11:00 +39°C° 0 mm 2 mps 713 mmHg 9%
    12:00 +41°C° 0 mm 1 mps 713 mmHg 8%
    13:00 +44°C° 0 mm 1 mps 712 mmHg 8%
    14:00 +43°C° 0 mm 1 mps 711 mmHg 8%
    15:00 +42°C° 0 mm 1 mps 710 mmHg 8%
    16:00 +41°C° 0 mm 1 mps 710 mmHg 8%
    17:00 +34°C° 0 mm 0 mps 710 mmHg 12%
    18:00 +29°C° 0 mm 0 mps 709 mmHg 15%
    19:00 +25°C° 0 mm 0 mps 709 mmHg 18%
    20:00 +24°C° 0 mm 0 mps 710 mmHg 19%
    21:00 +23°C° 0 mm 0 mps 710 mmHg 20%
    22:00 +22°C° 0 mm 0 mps 710 mmHg 21%
    23:00 +21°C° 0 mm 0 mps 710 mmHg 23%
    Show more